Location: Newark
(53.3333°N, 83.7500°E)
Time: 18:32:50
(UTC+00:00)

Vanguard 2 - Pass Details

Date: 25 November 2019
Orbit: 553 x 2938 km, 32.9° (Epoch: 08 December)

Event Time Altitude Azimuth Distance (km) Brightness Sun altitude
Rises 01:52:27 0° 234° (SW) 6,151 11.9 -2.6°
Reaches altitude 10° 01:58:11 10° 221° (SW) 4,730 11.5 -1.9°
Maximum altitude 02:06:32 21° 180° (S) 3,178 11.2 -0.8°
Drops below altitude 10° 02:12:42 10° 135° (SE) 3,355 12.9 -0.1°
Sets 02:15:54 0° 119° (ESE) 3,980 13.9 0.3°
